Погода в Привольном

Россия / Калининградская область     54°43′29″N   21°54′37″E
темп.,
°C
ветер,
м/с
пор.,
м/с
влажн.,
%
обл.,
%
осадки,
мм/ч
давл.,
гПа
погр.,
м
5 марта, пт
пт523:00−2с49770 0.0 1015241
02:00−3ссз23750 0.0 101675
05:00−3сз24790 0.0 1016111
08:00−2сз378517 0.0 1018276
11:00+1с45430 0.0 10191259
14:00+2сз35360 0.0 10191808
17:00+1зсз475559 0.0 1020923
20:00−1з377780 0.2 1021185
6 марта, сб
сб623:00−2сз4107273 0.1 1023287
02:00−3ссз487538 0.1 1025313
05:00−4сз35730 0.0 1025156
08:00−3з24660 0.0 1027170
11:00+1з465322 0.0 10261285
14:00+3зюз685161 0.0 10251483
17:00+2зюз5105259 0.0 10221157
20:00+1зюз7156444 0.0 1019762
7 марта, вс
вс723:00+2зюз91690100 0.1 10151075
02:00+2з91779100 0.1 10131244
05:00+1зсз81497100 0.4 1011870
08:000зсз4865100 0.6 10121080
11:00+2з71053100 0.0 10121344
14:00+2зсз71058100 0.0 10111374
17:00+1зсз61063100 0.0 10101377
20:00−1зсз4106898 0.0 1011476
8 марта, пн
пн823:00−2з48681 0.0 1011237
02:00−2сз367142 0.0 1012234
05:00−2сз377793 0.0 1012559
08:00−2сз468374 0.0 1013597
11:000ссз575895 0.1 10141283
14:00+1с674898 0.2 10161525
17:000с6849100 0.0 10171457
20:00−3с385653 0.0 1020281
9 марта, вт
вт923:00−4с36620 0.0 1022346
02:00−5ссв25540 0.0 1023583
05:00−6с24560 0.0 1024249
08:00−6св23595 0.0 1025252
11:00−3ю1241100 0.0 1026602
14:00−1юз2332100 0.0 1026877
17:00−2юз3438100 0.0 1024862
20:00−4ююз235795 0.0 102470